Home   Weather   Capo Gallo   Past weeks
Flag for Italy

Past Weather in Capo Gallo, Italy — Yesterday and Last 2 Weeks

Currently: 91 °F. Passing clouds. (Weather station: Palermo / Punta Raisi, Italy). See more current weather

Past Weather in Capo Gallo — Graph

°F

Capo Gallo Temperature Yesterday

Maximum temperature yesterday: 99 °F (at 6:20 pm)
Minimum temperature yesterday: 77 °F (at 2:50 am)
Average temperature yesterday: 82 °F

High & Low Weather Summary for the Past Weeks

 TemperatureHumidityPressure
High99 °F (Jun 26, 6:20 pm)94% (Jun 25, 12:50 am)30.07 "Hg (Jun 25, 12:50 am)
Low66 °F (Jun 14, 4:50 am)22% (Jun 23, 11:50 am)29.89 "Hg (Jun 22, 6:20 pm)
Average78 °F69%29.99 "Hg
* Reported Jun 12 6:20 am — Jun 27 6:50 am, Capo Gallo. Weather by CustomWeather, © 2022

Note: Actual official high and low records may vary slightly from our data, if they occured in-between our weather recording intervals... More about our weather records

Capo Gallo Weather History for the Previous 24 Hours

Scroll right to see more
 ConditionsComfort  
Time TempWeatherWind HumidityBarometerVisibility
6:50 am
Mon, Jun 27
88 °FSunny.14 mph25%29.95 "Hg10 mi
6:20 am88 °FSunny.8 mph31%29.92 "Hg10 mi
5:50 am88 °FSunny.8 mph22%29.92 "Hg10 mi
5:20 am84 °FPassing clouds.5 mph27%29.92 "HgN/A
4:50 am82 °FClear.6 mph30%29.92 "Hg10 mi
4:20 am77 °FClear.3 mph39%29.92 "Hg10 mi
3:50 am82 °FPassing clouds.3 mph37%29.92 "HgN/A
3:20 am82 °FClear.2 mph35%29.92 "Hg10 mi
2:50 am79 °FClear.6 mph51%29.92 "Hg10 mi
1:20 am81 °FClear.2 mph66%29.92 "Hg10 mi
12:50 am86 °FClear.3 mph33%29.92 "Hg10 mi
12:20 am82 °FClear.5 mph51%29.92 "Hg10 mi
11:50 pm
Sun, Jun 26
86 °FClear.2 mph38%29.92 "Hg10 mi
11:20 pm84 °FClear.6 mph51%29.92 "Hg10 mi
10:50 pm82 °FClear.6 mph62%29.92 "Hg10 mi
10:20 pm82 °FPassing clouds.3 mph70%29.92 "HgN/A
9:50 pm82 °FPassing clouds.3 mph70%29.92 "HgN/A
9:20 pm82 °FClear.2 mph74%29.89 "Hg10 mi
8:50 pm86 °FClear.2 mph52%29.89 "Hg10 mi
7:50 pm84 °FSunny.5 mph74%29.89 "Hg10 mi
6:20 pm99 °FSunny.10 mph22%29.89 "Hg10 mi
10:50 am86 °FSunny.10 mph55%29.95 "Hg10 mi
10:20 am82 °FSunny.8 mph70%29.95 "Hg10 mi
9:50 am84 °FSunny.7 mph55%29.95 "Hg10 mi
9:20 am82 °FSunny.3 mph66%29.95 "Hg10 mi
8:50 am82 °FPassing clouds.3 mph70%29.95 "HgN/A
8:20 am82 °FSunny.2 mph58%29.95 "Hg10 mi
Weather by CustomWeather, © 2022

See weather overview